This demonstration page uses our WeatherBlox Daily Observations layout. Learn more.

Left ArrowRight Arrow

38.88101, -77.10428

Hourly Observations for December 9, 2019

Temp ( °F °C ) Dew Point ( °F °C ) Humidity (%) Winds ( mph kmh ) Pressure ( in mb ) Visibility ( mi km ) Precip ( " mm )
12:52 am 00:52 Cloudy 45 7.2 41 5 86 86 SSE 3 6 30.27 1025 10 16 N/A
1:52 am 01:52 Cloudy with Drizzle 45 7.2 42 5.6 90 90 N N/A 30.24 1024 6 10 0.00 0.00
2:01 am 02:01 Cloudy with Drizzle 45 7.2 42 5.6 90 90 SE 6 9 30.23 1024 6 10 0.00 0.00
2:45 am 02:45 Cloudy 45 7.2 43 6.1 93 93 ESE 7 11 30.20 1023 10 16 0.01 0.25
2:52 am 02:52 Cloudy 45 7.2 43 6.1 93 93 ESE 7 11 30.19 1022 10 16 0.01 0.25
3:12 am 03:12 Cloudy 45 7.2 44 6.7 97 97 WSW 3 6 30.18 1022 10 16 N/A
3:52 am 03:52 Cloudy 45 7.2 44 6.7 97 97 WSW 3 6 30.16 1021 10 16 N/A
4:52 am 04:52 Cloudy 45 7.2 44 6.7 97 97 WSW 5 7 30.15 1021 10 16 N/A
5:52 am 05:52 Cloudy with Drizzle 45 7.2 44 6.7 97 97 S 5 7 30.13 1020 5 8 0.00 0.00
5:55 am 05:55 Cloudy with Drizzle 45 7.2 44 6.7 97 97 S 5 7 30.14 1021 2 3 0.00 0.00
6:29 am 06:29 Cloudy with Mist and Fog 45 7.2 44 6.7 97 97 S 7 11 30.12 1020 4 6 0.00 0.00
6:33 am 06:33 Cloudy with Drizzle 45 7.2 44 6.7 97 97 S 6 9 30.12 1020 3 4 0.00 0.00
6:43 am 06:43 Cloudy with Drizzle 45 7.2 44 6.7 97 97 S 6 9 30.12 1020 2 3 0.00 0.00
6:48 am 06:48 Cloudy with Drizzle 45 7 45 7 100 100 S 6 9 30.12 1020 2 2 0.00 0.00
6:52 am 06:52 Cloudy with Drizzle 45 7.2 44 6.7 97 97 S 6 9 30.11 1020 2 2 0.00 0.00
7:52 am 07:52 Mostly Cloudy with Fog 44 6.7 44 6.7 100 100 S 7 11 30.10 1019 1 1 0.00 0.00
8:21 am 08:21 Mostly Cloudy with Fog 44 6.7 44 6.7 100 100 S 6 9 30.10 1019 0 0 N/A
8:32 am 08:32 Mostly Cloudy with Fog 44 6.7 44 6.7 100 100 S 7 11 30.09 1019 1 2 N/A
8:52 am 08:52 Mostly Cloudy with Fog 45 7.2 45 7.2 100 100 S 7 11 30.09 1019 1 1 N/A
9:07 am 09:07 Cloudy with Mist and Fog 45 7.2 45 7.2 100 100 SSW 6 9 30.10 1019 1 2 N/A
9:17 am 09:17 Cloudy with Mist and Fog 46 7.8 45 7.2 96 96 SSW 7 11 30.11 1020 2 3 N/A
9:31 am 09:31 Cloudy with Mist and Fog 46 7.8 45 7.2 96 96 SSW 10 17 30.11 1020 4 6 N/A
9:52 am 09:52 Cloudy with Light Rain 46 7.8 45 7.2 96 96 SSW 9 15 30.11 1020 7 11 0.00 0.00
10:08 am 10:08 Cloudy with Light Rain 46 7.8 45 7.2 96 96 S 8 13 30.11 1020 5 8 0.00 0.00
10:52 am 10:52 Cloudy with Light Rain 46 7.8 45 7.2 96 96 S 10 17 30.08 1019 3 5 0.06 1.52
11:15 am 11:15 Cloudy with Rain 46 7.8 45 7.2 96 96 S 10 17 30.07 1018 3 4 0.03 0.76
11:29 am 11:29 Cloudy with Light Rain 46 7.8 45 7.2 96 96 S 9 15 30.06 1018 3 5 0.04 1.02
11:52 am 11:52 Cloudy with Rain 47 8.3 45 7.2 93 93 S 8 13 30.04 1017 3 5 0.09 2.29
12:14 pm 12:14 Cloudy with Light Rain 47 8.3 45 7.2 93 93 SSW 9 15 30.03 1017 4 6 0.03 0.76
12:22 pm 12:22 Cloudy with Light Rain 47 8.3 45 7.2 93 93 S 10 17 30.02 1017 4 6 0.04 1.02
12:52 pm 12:52 Cloudy with Rain 46 7.8 44 6.7 93 93 S 9 15 29.99 1016 3 5 0.12 3.05
12:55 pm 12:55 Cloudy with Rain 46 7.8 45 7.2 96 96 S 9 15 29.99 1016 2 3 0.01 0.25
1:02 pm 13:02 Cloudy with Heavy Rain 46 7.8 45 7.2 96 96 S 10 17 29.98 1015 2 2 0.05 1.27
1:16 pm 13:16 Cloudy with Heavy Rain 46 7.8 45 7.2 96 96 S 9 15 29.98 1015 2 3 0.14 3.56
1:32 pm 13:32 Cloudy with Light Rain 46 7.8 45 7.2 96 96 SSW 8 13 29.97 1015 6 10 0.17 4.32
1:52 pm 13:52 Cloudy with Light Rain 47 8.3 45 7.2 93 93 SSW 12 19 29.96 1014 4 6 0.19 4.83
2:20 pm 14:20 Cloudy with Rain 47 8.3 45 7.2 93 93 S 8 13 29.93 1014 3 5 0.06 1.52
2:39 pm 14:39 Cloudy with Light Rain 46 7.8 45 7.2 96 96 S 10 17 29.92 1013 5 8 0.09 2.29
2:52 pm 14:52 Cloudy with Rain 46 7.8 45 7.2 96 96 S 10 17 29.92 1013 5 8 0.11 2.79
3:00 pm 15:00 Cloudy with Rain 46 7.8 45 7.2 96 96 S 10 17 29.91 1013 3 5 0.02 0.51
3:32 pm 15:32 Cloudy with Light Rain 47 8.3 45 7.2 93 93 SSW 8 13 29.91 1013 3 4 0.11 2.79
3:43 pm 15:43 Cloudy with Rain 47 8.3 45 7.2 93 93 S 8 13 29.91 1013 4 6 0.14 3.56
3:52 pm 15:52 Cloudy with Light Rain 47 8.3 45 7.2 93 93 S 10 17 29.90 1013 8 13 0.15 3.81
4:52 pm 16:52 Cloudy 47 8.3 46 7.8 97 97 S 10 17 29.87 1011 10 16 0.00 0.00
5:47 pm 17:47 Cloudy 46 8 46 8 100 100 S 12 19 29.85 1011 10 16 N/A
5:52 pm 17:52 Cloudy 47 8.3 46 7.8 97 97 S 14 22 29.85 1011 10 16 N/A
6:12 pm 18:12 Cloudy with Light Rain 47 8.3 46 7.8 97 97 S 12 19 29.85 1011 10 16 0.00 0.00
6:34 pm 18:34 Cloudy with Light Rain 48 8.9 46 7.8 93 93 SSW 12 19 29.85 1011 10 16 0.00 0.00
6:52 pm 18:52 Cloudy with Light Rain 48 8.9 46 7.8 93 93 SSW 15 24 29.84 1011 10 16 0.00 0.00
7:52 pm 19:52 Cloudy with Light Rain 49 9.4 47 8.3 93 93 SSW 15 24 29.84 1011 10 16 0.00 0.00
8:36 pm 20:36 Cloudy with Light Rain 49 9.4 48 8.9 97 97 S 13 20 29.85 1011 10 16 0.01 0.25
8:52 pm 20:52 Cloudy with Light Rain 50 10 48 8.9 93 93 SSW 16 26 29.83 1010 10 16 0.01 0.25
9:49 pm 21:49 Cloudy with Light Rain 52 11 48 9 88 88 S 17 28 29.83 1010 10 16 0.01 0.25
9:52 pm 21:52 Cloudy with Light Rain 51 10.6 49 9.4 92 92 SSW 18 30 29.83 1010 10 16 0.01 0.25
10:52 pm 22:52 Cloudy 52 11.1 49 9.4 89 89 SSW 14 22 29.83 1010 10 16 0.00 0.00
11:46 pm 23:46 Cloudy 52 11 50 10 94 94 SSW 16 26 29.82 1010 10 16 N/A
11:52 pm 23:52 Cloudy 52 11.1 50 10 93 93 SSW 14 22 29.82 1010 10 16 N/A

Powered by AerisWeather